Change the Weather History Date:

Tuesday, May 21, 2013

  Actual Average Record
Temperature  
Mean Temperature 69 °F -  
Max Temperature 79 °F 68 °F 88 °F (1972)
Min Temperature 59 °F 41 °F 23 °F (1954)
Cooling Degree Days 4    
Growing Degree Days 19 (Base 50)    
Moisture  
Dew Point 60 °F    
Average Humidity 76    
Maximum Humidity 91    
Minimum Humidity 55    
Precipitation  
Precipitation 0.00 in - - ()
Sea Level Pressure  
Sea Level Pressure 29.72 in    
Wind  
Wind Speed 6 mph (South)    
Max Wind Speed 18 mph    
Max Gust Speed 25 mph    
Visibility 9 miles    
Events Rain    
Averages and records for this station are not official NWS values.
T = Trace of Precipitation, MM = Missing Value Source: NWS Daily Summary

Daily Weather History Graph

Daily Weather History Graph

Search for Another Location

Airport or City:

Trip Planner

Search our weather history database for the weather conditions in past years. The results will help you decide how hot, cold, wet, or windy it might be!

Date:

Astronomy

May. 21, 2013 Rise Set
Actual Time 6:08 AM EDT 9:08 PM EDT
Civil Twilight 5:34 AM EDT 9:43 PM EDT
Nautical Twilight 4:50 AM EDT 10:27 PM EDT
Astronomical Twilight 3:58 AM EDT 11:19 PM EDT
Moon 5:13 PM EDT (5/21) 3:45 AM EDT (5/21)
Length of Visible Light 16h 08m
Length of Day
15h 00m
Waxing Gibbous, 84% of the Moon is Illuminated
May 21
Waxing Gibbous
May 25
Full
May 31
Last Quarter
Jun 8
New
Jun 16
First Quarter

Hourly Weather History & Observations

Time (EDT) Temp. Dew Point Humidity Pressure Visibility Wind Dir Wind Speed Gust Speed Precip Events Conditions
12:15 AM 61.7 °F 58.3 °F 89% 29.78 in 7.0 mi ENE 4.6 mph - N/A   Clear
12:35 AM 61.7 °F 58.1 °F 88% 29.77 in 4.0 mi Calm Calm - N/A   Clear
12:55 AM 59.2 °F 56.3 °F 90% 29.78 in 1.2 mi Calm Calm - N/A   Mist
1:15 AM 59.0 °F 55.2 °F 87% 29.78 in 5.0 mi Calm Calm - N/A   Clear
1:35 AM 59.0 °F 55.4 °F 88% 29.77 in 10.0 mi Calm Calm - N/A   Clear
1:55 AM 59.0 °F 55.9 °F 90% 29.75 in 5.0 mi Calm Calm - N/A   Clear
2:15 AM 59.9 °F 57.4 °F 91% 29.73 in 3.0 mi ENE 5.8 mph - N/A   Clear
2:35 AM 61.7 °F 59.0 °F 91% 29.72 in 5.0 mi ENE 3.5 mph - N/A   Clear
2:55 AM 61.7 °F 59.0 °F 91% 29.72 in 7.0 mi East 5.8 mph - N/A   Scattered Clouds
3:14 AM 61.7 °F 59.0 °F 91% 29.72 in 7.0 mi Calm Calm - N/A   Scattered Clouds
3:35 AM 64.6 °F 61.0 °F 88% 29.73 in 10.0 mi South 3.5 mph - N/A   Clear
3:55 AM 69.1 °F 63.5 °F 82% 29.73 in 10.0 mi South 4.6 mph - N/A   Mostly Cloudy
4:14 AM 64.0 °F 60.3 °F 87% 29.77 in 3.0 mi WSW 9.2 mph 17.3 mph N/A Rain Rain
4:35 AM 64.0 °F 61.0 °F 90% 29.73 in 5.0 mi West 10.4 mph - N/A Rain Rain
4:55 AM 63.7 °F 60.4 °F 89% 29.73 in 10.0 mi South 6.9 mph - N/A Rain Light Rain
5:14 AM 62.8 °F 59.9 °F 90% 29.73 in 10.0 mi South 4.6 mph - N/A   Clear
5:35 AM 62.8 °F 59.9 °F 90% 29.72 in 10.0 mi ESE 4.6 mph - N/A   Scattered Clouds
5:55 AM 62.8 °F 60.1 °F 91% 29.74 in 10.0 mi SSE 4.6 mph - N/A Rain Light Rain
6:14 AM 62.8 °F 59.9 °F 90% 29.74 in 10.0 mi SE 3.5 mph - N/A Rain Light Rain
6:35 AM 62.8 °F 59.9 °F 90% 29.76 in 10.0 mi South 5.8 mph - N/A Rain Light Rain
6:55 AM 62.8 °F 59.2 °F 88% 29.74 in 7.0 mi South 5.8 mph - N/A Rain Rain
7:14 AM 62.8 °F 59.4 °F 89% 29.74 in 10.0 mi SSE 4.6 mph - N/A Rain Rain
7:35 AM 62.6 °F 59.4 °F 89% 29.74 in 5.0 mi SSE 5.8 mph - N/A Rain Rain
7:55 AM 62.2 °F 59.2 °F 90% 29.73 in 5.0 mi South 5.8 mph - N/A Rain Heavy Rain
8:14 AM 62.8 °F 59.9 °F 90% 29.71 in 10.0 mi South 4.6 mph - N/A   Overcast
8:35 AM 64.2 °F 60.6 °F 88% 29.71 in 10.0 mi SSW 5.8 mph - N/A   Scattered Clouds
8:55 AM 64.8 °F 60.4 °F 86% 29.72 in 10.0 mi South 8.1 mph - N/A   Scattered Clouds
9:15 AM 66.0 °F 61.0 °F 84% 29.72 in 10.0 mi SSW 11.5 mph 16.1 mph N/A   Mostly Cloudy
9:35 AM 65.3 °F 60.1 °F 83% 29.73 in 10.0 mi South 10.4 mph 16.1 mph N/A   Overcast
9:55 AM 66.0 °F 61.0 °F 84% 29.73 in 10.0 mi South 11.5 mph 16.1 mph N/A   Overcast
10:15 AM 66.6 °F 60.1 °F 80% 29.73 in 10.0 mi SSW 9.2 mph 16.1 mph N/A   Overcast
10:35 AM 66.6 °F 60.1 °F 80% 29.73 in 10.0 mi SSW 9.2 mph 17.3 mph N/A   Overcast
10:55 AM 66.6 °F 60.3 °F 80% 29.74 in 10.0 mi SSW 11.5 mph - N/A   Overcast
11:15 AM 66.6 °F 60.6 °F 81% 29.74 in 10.0 mi SSW 10.4 mph - N/A   Overcast
11:35 AM 66.6 °F 60.6 °F 81% 29.74 in 10.0 mi SSW 8.1 mph 16.1 mph N/A   Overcast
11:54 AM 69.8 °F 62.4 °F 77% 29.74 in 10.0 mi SSW 10.4 mph - N/A   Overcast
12:15 PM 71.6 °F 62.8 °F 74% 29.73 in 10.0 mi South 12.7 mph - N/A   Overcast
12:35 PM 71.6 °F 61.3 °F 70% 29.73 in 10.0 mi SSW 10.4 mph - N/A   Mostly Cloudy
12:54 PM 71.6 °F 61.2 °F 70% 29.72 in 10.0 mi SW 8.1 mph - N/A   Scattered Clouds
1:15 PM 74.3 °F 62.2 °F 66% 29.72 in 10.0 mi South 11.5 mph 16.1 mph N/A   Scattered Clouds
1:35 PM 74.3 °F 61.9 °F 65% 29.71 in 10.0 mi South 11.5 mph 17.3 mph N/A   Scattered Clouds
1:54 PM 76.5 °F 63.7 °F 64% 29.71 in 10.0 mi South 9.2 mph 17.3 mph N/A   Scattered Clouds
2:15 PM 76.6 °F 61.9 °F 60% 29.70 in 10.0 mi South 9.2 mph - N/A   Scattered Clouds
2:35 PM 76.6 °F 60.8 °F 58% 29.70 in 10.0 mi South 10.4 mph 18.4 mph N/A   Scattered Clouds
2:54 PM 77.0 °F 60.6 °F 57% 29.70 in 10.0 mi SSW 13.8 mph 18.4 mph N/A   Clear
3:15 PM 76.6 °F 59.5 °F 55% 29.70 in 10.0 mi South 13.8 mph 21.9 mph N/A   Scattered Clouds
3:34 PM 76.8 °F 59.9 °F 56% 29.70 in 10.0 mi South 12.7 mph 19.6 mph N/A   Scattered Clouds
3:55 PM 78.4 °F 61.2 °F 55% 29.70 in 10.0 mi South 16.1 mph 25.3 mph N/A   Scattered Clouds
4:15 PM 79.2 °F 62.6 °F 57% 29.70 in 10.0 mi SSW 17.3 mph 21.9 mph N/A   Scattered Clouds
4:34 PM 77.0 °F 60.1 °F 56% 29.70 in 10.0 mi South 18.4 mph - N/A   Scattered Clouds
4:55 PM 76.8 °F 60.6 °F 57% 29.69 in 10.0 mi South 11.5 mph 17.3 mph N/A   Scattered Clouds
5:15 PM 77.5 °F 61.0 °F 57% 29.69 in 10.0 mi South 11.5 mph - N/A   Scattered Clouds
5:35 PM 76.6 °F 60.4 °F 57% 29.69 in 10.0 mi South 16.1 mph 20.7 mph N/A   Clear
5:55 PM 76.6 °F 61.0 °F 58% 29.69 in 10.0 mi South 9.2 mph - N/A   Clear
6:14 PM 76.6 °F 60.6 °F 58% 29.69 in 10.0 mi South 10.4 mph 17.3 mph N/A   Scattered Clouds
6:35 PM 76.5 °F 61.9 °F 61% 29.69 in 10.0 mi South 10.4 mph - N/A   Scattered Clouds
6:55 PM 76.6 °F 61.2 °F 59% 29.69 in 10.0 mi SSW 10.4 mph - N/A   Scattered Clouds
7:15 PM 76.5 °F 61.0 °F 59% 29.69 in 10.0 mi SSW 8.1 mph - N/A   Scattered Clouds
7:35 PM 74.8 °F 59.7 °F 59% 29.70 in 10.0 mi SSW 8.1 mph - N/A   Overcast
7:55 PM 74.3 °F 58.3 °F 57% 29.70 in 10.0 mi SSW 8.1 mph - N/A   Overcast
8:14 PM 73.0 °F 58.3 °F 60% 29.69 in 10.0 mi SSW 9.2 mph - N/A   Mostly Cloudy
8:35 PM 71.6 °F 57.9 °F 62% 29.69 in 10.0 mi South 8.1 mph - N/A   Overcast
8:55 PM 71.6 °F 58.6 °F 64% 29.69 in 10.0 mi South 6.9 mph - N/A Rain Rain
9:14 PM 70.9 °F 62.6 °F 75% 29.70 in 10.0 mi SSW 4.6 mph - N/A   Mostly Cloudy
9:35 PM 69.1 °F 61.3 °F 76% 29.70 in 10.0 mi SW 3.5 mph - N/A   Mostly Cloudy
9:55 PM 71.6 °F 63.3 °F 75% 29.71 in 10.0 mi SSW 5.8 mph - N/A   Mostly Cloudy
10:14 PM 71.1 °F 63.0 °F 75% 29.71 in 10.0 mi SSW 5.8 mph - N/A   Overcast
10:35 PM 69.1 °F 61.2 °F 76% 29.71 in 10.0 mi South 4.6 mph - N/A   Scattered Clouds
10:55 PM 68.9 °F 61.2 °F 76% 29.71 in 10.0 mi South 3.5 mph - N/A   Clear
11:14 PM 66.6 °F 60.1 °F 80% 29.71 in 10.0 mi South 3.5 mph - N/A   Clear
11:35 PM 65.3 °F 59.4 °F 81% 29.71 in 10.0 mi Calm Calm - N/A   Clear
11:55 PM 64.0 °F 59.0 °F 84% 29.71 in 10.0 mi Calm Calm - N/A   Clear